Location: Kerberlivit
(48.2787°N, 4.5413°W)
Time: 19:55:23
(UTC+00:00)

Cosmos 1356 Rocket - Pass Details

Date: 18 February 2020
Orbit: 543 x 598 km, 81.2° (Epoch: 03 April)

Event Time Altitude Azimuth Distance (km) Brightness Sun altitude
Exits shadow 05:37:26 36° 299° (WNW) 901 3.9 -17.9°
Drops below altitude 10° 05:40:57 10° 356° (N) 1,868 6.0 -17.3°
Sets 05:43:18 0° 5° (N) 2,780 7.0 -16.9°
